• In Uzbekistan
  • List of Countries
  • For 7 days
  • Water Temperature
  • Satellite Maps
  • Weather Map
  • Weather Widgets
  • user-avatar
    Login

    Hourly Weather Top

    Today, 18 October, Wednesday

    Time Temperature Precipitation Wind Pressure Humidity
    00:00 +20°C° 0 mm 1 mps 682 mmHg 94%
    01:00 +20°C° 0 mm 1 mps 682 mmHg 94%
    02:00 +20°C° 0.1 mm 1 mps 682 mmHg 94%
    03:00 +20°C° 0.1 mm 1 mps 682 mmHg 94%
    04:00 +18°C° 0.1 mm 0 mps 682 mmHg 94%
    05:00 +18°C° 0 mm 0 mps 682 mmHg 92%
    06:00 +19°C° 0 mm 0 mps 683 mmHg 90%
    07:00 +20°C° 0 mm 0 mps 683 mmHg 86%
    08:00 +24°C° 0 mm 1 mps 684 mmHg 79%
    09:00 +26°C° 0 mm 1 mps 684 mmHg 72%
    10:00 +28°C° 0 mm 1 mps 684 mmHg 64%
    11:00 +28°C° 0.3 mm 1 mps 684 mmHg 64%
    12:00 +29°C° 0.3 mm 1 mps 684 mmHg 64%
    13:00 +29°C° 0.3 mm 2 mps 684 mmHg 63%
    14:00 +28°C° 0.6 mm 2 mps 683 mmHg 68%
    15:00 +27°C° 0.6 mm 1 mps 683 mmHg 73%
    16:00 +27°C° 0.6 mm 1 mps 682 mmHg 77%
    17:00 +25°C° 0.1 mm 1 mps 682 mmHg 82%
    18:00 +24°C° 0.1 mm 1 mps 682 mmHg 86%
    19:00 +22°C° 0.1 mm 1 mps 682 mmHg 91%
    20:00 +22°C° 0 mm 1 mps 683 mmHg 92%
    21:00 +21°C° 0 mm 1 mps 683 mmHg 93%
    22:00 +21°C° 0 mm 1 mps 683 mmHg 93%
    23:00 +21°C° 0 mm 1 mps 683 mmHg 94%

    Tomorrow, 19 October, Thursday

    Time Temperature Precipitation Wind Pressure Humidity
    00:00 +21°C° 0 mm 1 mps 683 mmHg 94%
    01:00 +20°C° 0 mm 1 mps 683 mmHg 95%
    02:00 +20°C° 0 mm 1 mps 682 mmHg 95%
    03:00 +20°C° 0 mm 1 mps 682 mmHg 95%
    04:00 +20°C° 0 mm 1 mps 682 mmHg 95%
    05:00 +21°C° 0 mm 1 mps 682 mmHg 93%
    06:00 +21°C° 0 mm 1 mps 683 mmHg 91%
    07:00 +22°C° 0 mm 1 mps 683 mmHg 89%
    08:00 +24°C° 0 mm 1 mps 684 mmHg 82%
    09:00 +25°C° 0 mm 1 mps 684 mmHg 75%
    10:00 +27°C° 0 mm 1 mps 685 mmHg 68%
    11:00 +28°C° 0.7 mm 1 mps 684 mmHg 67%
    12:00 +28°C° 0.7 mm 1 mps 684 mmHg 65%
    13:00 +29°C° 0.7 mm 2 mps 683 mmHg 64%
    14:00 +29°C° 0.4 mm 1 mps 683 mmHg 63%
    15:00 +28°C° 0.4 mm 1 mps 682 mmHg 63%
    16:00 +28°C° 0.4 mm 1 mps 682 mmHg 62%
    17:00 +26°C° 0 mm 1 mps 682 mmHg 70%
    18:00 +24°C° 0 mm 1 mps 682 mmHg 78%
    19:00 +22°C° 0 mm 1 mps 682 mmHg 85%
    20:00 +21°C° 0 mm 1 mps 683 mmHg 87%
    21:00 +21°C° 0 mm 1 mps 683 mmHg 90%
    22:00 +20°C° 0 mm 1 mps 684 mmHg 92%
    23:00 +20°C° 0 mm 1 mps 683 mmHg 93%

    Day after tomorrow, 20 October, Friday

    Time Temperature Precipitation Wind Pressure Humidity
    00:00 +20°C° 0 mm 1 mps 683 mmHg 93%
    01:00 +19°C° 0 mm 1 mps 683 mmHg 94%
    02:00 +19°C° 0 mm 1 mps 683 mmHg 94%
    03:00 +19°C° 0 mm 1 mps 683 mmHg 94%
    04:00 +19°C° 0 mm 1 mps 682 mmHg 93%
    05:00 +18°C° 0 mm 0 mps 683 mmHg 90%
    06:00 +19°C° 0 mm 0 mps 683 mmHg 87%
    07:00 +20°C° 0 mm 0 mps 684 mmHg 84%
    08:00 +22°C° 0.1 mm 0 mps 685 mmHg 75%
    09:00 +25°C° 0.1 mm 0 mps 685 mmHg 66%
    10:00 +27°C° 0.1 mm 0 mps 686 mmHg 58%
    11:00 +27°C° 0.9 mm 0 mps 685 mmHg 63%
    12:00 +27°C° 0.9 mm 0 mps 684 mmHg 68%
    13:00 +29°C° 0.9 mm 1 mps 684 mmHg 73%
    14:00 +28°C° 1.1 mm 1 mps 683 mmHg 75%
    15:00 +26°C° 1.1 mm 0 mps 682 mmHg 78%
    16:00 +25°C° 1.1 mm 0 mps 682 mmHg 80%
    17:00 +23°C° 0.5 mm 0 mps 682 mmHg 84%
    18:00 +22°C° 0.5 mm 0 mps 682 mmHg 87%
    19:00 +22°C° 0.5 mm 1 mps 682 mmHg 91%
    20:00 +22°C° 0 mm 1 mps 683 mmHg 92%
    21:00 +20°C° 0 mm 0 mps 683 mmHg 93%
    22:00 +19°C° 0 mm 0 mps 684 mmHg 94%
    23:00 +19°C° 0 mm 0 mps 683 mmHg 94%

    21 October, Saturday

    Time Temperature Precipitation Wind Pressure Humidity
    00:00 +19°C° 0 mm 0 mps 683 mmHg 95%
    01:00 +19°C° 0 mm 0 mps 683 mmHg 96%
    02:00 +19°C° 0.1 mm 0 mps 683 mmHg 96%
    03:00 +18°C° 0.1 mm 0 mps 682 mmHg 96%
    04:00 +18°C° 0.1 mm 0 mps 682 mmHg 96%
    05:00 +19°C° 0 mm 0 mps 683 mmHg 95%
    06:00 +19°C° 0 mm 0 mps 683 mmHg 94%
    07:00 +20°C° 0 mm 0 mps 684 mmHg 92%
    08:00 +22°C° 0 mm 0 mps 684 mmHg 80%
    09:00 +25°C° 0 mm 0 mps 685 mmHg 69%
    10:00 +28°C° 0 mm 0 mps 685 mmHg 57%
    11:00 +30°C° 0 mm 1 mps 685 mmHg 53%
    12:00 +31°C° 0 mm 1 mps 684 mmHg 49%
    13:00 +32°C° 0 mm 1 mps 683 mmHg 45%
    14:00 +31°C° 0 mm 1 mps 683 mmHg 48%
    15:00 +30°C° 0 mm 1 mps 682 mmHg 52%
    16:00 +29°C° 0 mm 1 mps 681 mmHg 55%
    17:00 +27°C° 0 mm 1 mps 682 mmHg 63%
    18:00 +25°C° 0 mm 1 mps 682 mmHg 71%
    19:00 +23°C° 0 mm 1 mps 682 mmHg 80%
    20:00 +23°C° 0 mm 1 mps 682 mmHg 83%
    21:00 +22°C° 0 mm 1 mps 682 mmHg 87%
    22:00 +22°C° 0 mm 1 mps 683 mmHg 90%
    23:00 +20°C° 0 mm 0 mps 682 mmHg 91%

    22 October, Sunday

    Time Temperature Precipitation Wind Pressure Humidity
    00:00 +19°C° 0 mm 0 mps 682 mmHg 92%
    01:00 +19°C° 0 mm 0 mps 682 mmHg 93%
    02:00 +19°C° 0 mm 0 mps 682 mmHg 94%
    03:00 +19°C° 0 mm 0 mps 681 mmHg 94%
    04:00 +18°C° 0 mm 0 mps 681 mmHg 95%
    05:00 +19°C° 0 mm 0 mps 682 mmHg 92%
    06:00 +20°C° 0 mm 0 mps 683 mmHg 90%
    07:00 +20°C° 0 mm 0 mps 683 mmHg 88%
    08:00 +23°C° 0.1 mm 0 mps 684 mmHg 79%
    09:00 +25°C° 0.1 mm 0 mps 684 mmHg 70%
    10:00 +29°C° 0.1 mm 1 mps 685 mmHg 61%
    11:00 +29°C° 0.5 mm 1 mps 684 mmHg 62%
    12:00 +29°C° 0.5 mm 1 mps 683 mmHg 63%
    13:00 +29°C° 0.5 mm 1 mps 682 mmHg 64%
    14:00 +29°C° 0.6 mm 1 mps 682 mmHg 67%
    15:00 +26°C° 0.6 mm 0 mps 681 mmHg 70%
    16:00 +25°C° 0.6 mm 0 mps 681 mmHg 74%
    17:00 +24°C° 0.5 mm 0 mps 681 mmHg 79%
    18:00 +24°C° 0.5 mm 1 mps 682 mmHg 84%
    19:00 +23°C° 0.5 mm 1 mps 682 mmHg 89%
    20:00 +22°C° 0.4 mm 1 mps 682 mmHg 90%
    21:00 +22°C° 0.4 mm 1 mps 683 mmHg 91%
    22:00 +22°C° 0.4 mm 1 mps 683 mmHg 92%
    23:00 +20°C° 0.4 mm 0 mps 683 mmHg 93%

    23 October, Monday

    Time Temperature Precipitation Wind Pressure Humidity
    00:00 +19°C° 0.4 mm 0 mps 683 mmHg 93%
    01:00 +19°C° 0.4 mm 0 mps 682 mmHg 94%
    02:00 +19°C° 0.3 mm 0 mps 682 mmHg 94%
    03:00 +19°C° 0.3 mm 0 mps 682 mmHg 94%
    04:00 +18°C° 0.3 mm 0 mps 682 mmHg 95%
    05:00 +19°C° 0 mm 0 mps 683 mmHg 93%
    06:00 +19°C° 0 mm 0 mps 683 mmHg 91%
    07:00 +20°C° 0 mm 0 mps 684 mmHg 89%
    08:00 +22°C° 0.1 mm 0 mps 684 mmHg 79%
    09:00 +25°C° 0.1 mm 0 mps 685 mmHg 69%
    10:00 +27°C° 0.1 mm 0 mps 686 mmHg 59%
    11:00 +28°C° 0.9 mm 0 mps 685 mmHg 62%
    12:00 +28°C° 0.9 mm 0 mps 684 mmHg 65%
    13:00 +30°C° 0.9 mm 1 mps 683 mmHg 68%
    14:00 +29°C° 0.9 mm 1 mps 683 mmHg 72%
    15:00 +27°C° 0.9 mm 1 mps 683 mmHg 76%
    16:00 +26°C° 0.9 mm 1 mps 683 mmHg 80%
    17:00 +25°C° 0.6 mm 1 mps 683 mmHg 84%
    18:00 +23°C° 0.6 mm 1 mps 683 mmHg 89%
    19:00 +22°C° 0.6 mm 1 mps 684 mmHg 93%
    20:00 +21°C° 0.1 mm 1 mps 684 mmHg 93%
    21:00 +21°C° 0.1 mm 1 mps 684 mmHg 93%
    22:00 +21°C° 0.1 mm 1 mps 685 mmHg 93%
    23:00 +20°C° 0 mm 1 mps 685 mmHg 93%
    Show more